Vorticity
8 10 15 19 18 13 20 27 4 -25 -14 6 8 19 25 20 19 5 3 22 11 -8 4 11 6 3 -3 1 7 2 -1 1 5 9 4 -0 10 21 17 6 -0 -2 -2 -1 -1 0 2 3 5 3 1 1 1 2 3 4 5 4 3 5 6 7 7 8 7 8 12 10 4 8 12 11 12 12 11 13 12 11 10 9 11 10 7 6 7
9 8 10 13 17 16 15 26 21 -9 -17 -4 -4 7 21 20 25 21 8 12 10 0 4 8 8 5 -3 1 6 4 4 3 4 11 9 2 4 13 18 17 9 -1 -3 -0 0 -0 1 3 5 5 2 1 1 2 3 2 4 4 3 3 5 6 6 7 8 8 12 10 4 8 12 10 12 12 11 11 12 12 11 11 11 8 6 7 7
12 9 9 10 11 13 14 26 29 2 -14 -8 -12 -0 22 19 16 21 17 14 14 8 4 6 12 8 -3 1 9 9 6 1 2 8 5 -0 -2 -2 5 18 19 8 -2 -2 0 0 1 1 4 5 3 2 1 1 2 2 3 4 4 3 4 6 5 5 7 7 10 10 6 8 11 11 11 11 10 10 11 11 12 13 11 7 6 9 8
17 14 10 9 11 11 10 23 31 7 -5 10 5 -1 13 18 13 15 19 20 16 9 8 11 16 12 -1 -4 5 11 8 1 2 3 -3 1 5 -3 -1 16 24 14 1 -2 -1 -0 1 1 2 4 4 3 2 2 2 2 3 4 4 3 3 6 5 5 6 6 8 9 7 8 11 11 11 10 9 8 9 10 12 13 10 8 9 10 8
18 18 15 10 9 10 11 20 28 9 -5 9 10 1 7 15 14 12 18 27 21 8 7 11 15 13 2 -4 4 12 7 1 3 2 0 8 7 -2 6 25 29 15 1 -2 -1 -0 1 1 1 2 4 3 2 2 2 2 2 3 4 3 4 5 5 5 5 5 6 8 7 8 10 11 11 10 8 7 7 9 11 10 9 10 11 10 9
17 18 19 17 10 8 9 16 24 16 0 -2 1 3 5 5 9 14 16 19 15 5 2 4 11 15 5 -7 -3 8 10 5 1 -2 3 12 9 4 16 27 23 13 2 -3 -1 1 1 2 2 2 3 4 2 2 3 2 2 3 3 3 4 4 4 5 5 4 5 5 7 9 8 8 11 11 9 8 7 8 9 8 8 9 10 10 10
14 16 19 20 15 10 9 12 19 19 14 9 2 2 5 2 5 20 23 12 -2 -5 2 6 7 15 15 2 -10 -8 0 4 3 -1 0 7 7 2 8 16 15 10 3 -2 -1 1 1 2 4 4 3 3 3 3 3 3 2 2 3 4 4 3 3 5 5 4 4 3 6 8 6 6 9 11 11 10 8 8 8 8 7 7 8 11 11
10 18 21 20 18 13 8 10 15 15 18 20 7 -2 2 0 -2 13 29 23 -1 -9 4 7 1 4 12 10 2 -1 -0 1 5 6 -0 -1 3 -1 -2 11 17 9 3 1 -2 -3 -0 3 4 5 3 3 4 3 3 4 3 2 3 3 4 4 3 4 5 5 4 3 5 6 6 6 7 9 11 11 10 9 8 8 8 5 6 10 10
8 20 27 23 19 17 10 7 11 12 15 21 15 2 -1 1 -2 0 17 24 11 6 11 4 -4 2 7 7 7 8 8 1 -0 9 7 -0 5 7 1 7 15 12 8 5 0 -1 3 5 5 5 3 3 5 4 3 4 3 2 3 3 3 4 3 4 6 6 5 3 3 5 6 6 6 7 9 10 10 10 9 8 8 6 6 8 8
1 13 29 31 23 18 14 9 8 10 13 18 18 7 0 3 1 -1 11 21 14 10 11 2 2 9 11 12 9 5 10 5 -3 10 22 17 16 16 2 -5 3 10 10 8 9 11 10 7 3 2 3 4 5 5 4 4 4 2 2 2 3 3 3 4 5 7 7 5 3 3 4 5 6 8 8 8 9 10 8 8 7 6 7 8 7
1 6 19 31 30 22 16 13 9 8 11 17 18 10 5 7 3 -5 1 13 15 13 10 8 10 10 9 15 12 4 10 12 4 4 2 -6 -0 9 7 3 3 4 4 5 7 7 5 3 2 1 2 3 4 5 4 3 4 4 3 2 2 3 3 3 4 6 8 7 5 3 3 3 5 8 8 8 8 8 8 8 7 7 7 7 7
9 9 12 23 32 28 19 14 11 9 9 13 16 12 6 6 7 -0 -8 -5 8 15 13 11 7 3 9 16 10 1 2 6 10 10 -5 -25 -24 -10 1 7 4 1 1 1 -1 0 1 2 3 2 1 0 1 3 4 4 4 4 3 2 2 3 4 2 2 4 6 8 7 4 3 3 3 6 8 9 8 7 8 8 7 7 7 6 8
7 6 8 16 28 32 27 17 11 9 8 10 15 17 12 6 5 6 -0 -5 0 4 8 14 13 9 11 13 11 5 -4 -5 6 16 16 4 -8 -9 -4 -2 -2 3 5 2 -0 2 3 3 3 3 2 1 -1 -0 2 3 4 3 2 2 3 4 3 2 2 2 3 7 8 7 5 4 3 3 6 8 8 7 7 8 7 8 7 7 7
9 4 2 8 19 28 30 23 15 10 8 9 10 12 14 11 6 6 3 -1 0 -1 -0 7 15 19 14 10 16 11 -5 0 15 15 16 16 6 3 6 2 -1 2 3 1 2 4 4 3 3 2 1 1 0 -0 2 4 4 4 3 3 3 4 3 3 2 2 2 4 7 8 7 5 4 3 4 5 8 8 8 8 7 6 7 7 8
9 8 5 7 15 23 26 22 17 12 7 8 13 13 11 9 6 8 7 2 0 -0 -2 -3 6 20 18 8 12 14 7 18 25 9 7 16 14 12 11 4 1 3 1 1 2 4 4 2 0 0 0 1 0 -0 1 2 2 4 5 3 2 2 4 5 2 2 3 3 4 6 8 8 6 4 3 3 5 8 9 8 8 6 5 6 7
12 13 12 12 15 25 33 27 19 16 9 3 5 9 13 12 7 4 4 3 3 3 3 -1 -1 12 16 3 4 20 27 28 19 5 6 14 14 14 12 4 1 2 2 3 2 2 3 2 1 2 1 0 2 1 1 1 1 3 6 6 3 2 3 4 2 3 3 2 2 3 6 9 8 5 4 4 3 5 7 8 9 8 7 6 6
17 15 15 14 8 14 30 33 25 20 18 15 10 4 5 10 11 9 6 2 1 3 4 0 -4 1 4 -4 3 26 31 18 7 4 12 19 17 11 7 5 4 2 1 3 2 1 3 4 3 4 3 2 2 -0 1 2 1 2 5 6 5 3 2 2 2 3 2 2 2 1 3 7 8 7 6 4 4 4 4 7 8 8 9 8 7
15 12 11 14 11 9 18 28 27 19 13 17 25 22 15 12 8 5 5 2 0 2 4 3 1 3 1 -9 -10 1 9 12 12 7 10 22 25 13 1 -1 3 5 4 4 2 1 5 6 4 3 4 4 0 -1 1 1 -1 -1 2 5 6 4 3 3 2 2 2 1 1 1 2 3 5 9 9 5 4 4 3 4 5 6 8 9 10
13 14 11 12 15 17 19 23 27 26 16 8 11 19 27 36 36 22 8 2 -2 -3 0 3 -1 -0 4 2 -7 -13 -11 1 8 3 4 15 21 19 12 4 1 2 4 6 5 3 4 7 5 3 3 1 -1 1 3 2 -1 -2 -1 2 6 6 5 4 2 0 1 1 1 1 1 1 2 6 9 7 6 5 3 3 4 5 6 7 9
11 15 15 13 12 17 23 21 18 22 22 16 14 13 9 17 37 44 35 23 12 2 2 6 4 -1 -0 1 -0 -3 -3 -2 -9 -13 -3 8 12 17 21 15 7 3 4 6 6 3 2 4 6 6 8 7 4 3 2 1 -1 -1 1 2 4 5 6 6 4 2 0 1 2 2 1 1 1 2 5 7 8 6 4 4 4 4 5 5 7
8 8 13 14 11 14 22 22 14 10 11 14 23 26 11 -6 2 22 35 41 39 26 13 5 1 1 3 3 0 -2 4 9 2 -9 -9 -7 -5 4 16 19 14 9 7 8 7 5 3 4 6 7 7 8 8 9 10 6 -0 -0 4 4 3 3 3 3 5 6 3 1 2 2 2 2 1 1 2 5 7 6 5 6 5 5 5 4 4
12 8 10 11 11 12 18 24 20 10 6 8 12 18 17 9 3 -2 -2 15 38 47 46 36 20 7 -1 -1 5 9 8 10 11 4 -5 -14 -19 -12 3 14 17 14 12 12 12 10 5 1 4 6 3 3 4 6 10 11 6 4 5 4 5 7 3 -2 1 6 7 6 3 1 2 4 2 1 1 3 5 4 4 6 7 6 5 5 5
14 11 11 11 11 11 13 21 21 13 10 12 11 11 8 9 23 22 0 -6 9 29 51 65 62 51 32 9 7 19 20 15 14 12 7 1 -6 -10 -8 -1 8 14 15 10 10 15 14 6 5 5 1 1 2 1 5 9 9 9 6 2 5 10 5 1 3 5 7 9 7 3 1 2 3 2 1 1 2 1 2 5 8 8 5 4 4
13 13 13 12 12 11 11 16 18 16 14 12 16 21 2 -16 11 41 26 -3 -10 -1 13 21 30 51 60 37 16 12 10 9 11 10 8 8 8 5 -0 -4 2 16 24 15 4 7 13 12 11 10 5 3 5 6 8 8 7 12 16 11 6 5 1 -1 3 6 4 4 8 10 4 1 3 3 0 -0 -0 -1 -0 2 6 9 7 3 3
15 16 15 13 12 11 11 15 15 15 16 10 11 21 8 -12 7 34 23 0 -3 6 9 -0 -3 16 35 32 24 17 9 7 10 8 6 7 11 13 10 5 8 19 26 21 9 4 6 6 9 13 11 9 12 14 11 6 2 10 22 22 14 9 6 5 6 7 3 -0 6 12 8 2 2 3 0 -1 -1 -1 1 1 2 6 7 4 3
18 18 18 17 15 12 10 13 14 14 17 14 9 11 10 8 18 21 5 -10 -7 5 12 7 5 14 18 17 22 22 17 17 16 9 7 8 12 14 10 8 14 17 14 13 13 12 8 3 4 9 12 13 16 17 16 11 4 5 13 15 12 12 14 18 18 13 9 11 15 16 12 6 5 6 4 1 -0 -0 -0 -0 1 2 5 6 4
15 18 20 19 18 16 14 14 15 13 13 16 16 11 5 4 8 8 3 -7 -10 0 11 6 0 5 11 14 19 19 17 19 18 14 10 8 12 16 13 10 13 13 11 13 14 13 11 7 4 4 5 7 9 10 12 10 7 8 9 7 7 7 8 16 24 23 22 20 9 1 8 16 15 13 12 10 8 6 1 -2 -1 1 2 4 5
9 10 12 16 18 19 18 16 18 17 14 13 16 15 9 2 -2 1 7 5 -3 2 13 12 3 -1 -1 5 15 20 19 19 18 17 15 12 9 10 10 8 6 5 11 17 15 12 12 11 7 5 4 4 6 7 8 8 8 11 11 6 5 4 1 4 12 20 28 27 11 2 12 22 16 10 12 12 13 13 8 1 -1 -0 1 3 4
21 16 12 9 10 15 18 17 16 18 18 16 16 17 15 10 4 1 4 8 5 2 6 11 13 9 1 -4 1 10 15 16 17 17 17 14 8 1 -0 2 -2 -3 6 16 15 12 12 11 8 5 3 3 4 4 4 4 6 9 11 7 2 3 6 4 2 6 16 23 25 25 23 14 6 4 8 11 12 13 15 14 6 -2 -2 2 3
22 27 28 23 14 11 14 17 18 18 19 18 18 19 18 16 14 9 6 8 11 9 8 7 5 7 11 7 -0 0 7 12 13 13 15 15 10 3 0 1 -0 -1 5 13 17 18 15 11 7 4 5 8 11 11 9 6 5 6 9 7 1 -1 3 4 2 5 8 8 13 18 9 0 2 5 6 9 10 9 13 22 20 5 -4 -0 3
14 16 26 36 34 22 11 10 14 18 21 19 19 21 21 18 18 17 13 11 12 14 17 15 6 0 8 13 6 -2 1 7 9 11 16 19 17 12 8 7 7 8 9 11 16 19 19 18 16 15 15 12 8 9 11 11 8 5 4 7 8 5 5 4 4 10 13 8 6 6 -1 -3 4 8 6 9 13 9 8 18 28 21 3 -4 1
18 12 14 26 38 38 26 13 5 8 17 21 18 19 21 20 20 19 17 15 14 13 15 17 14 7 6 10 10 4 1 2 4 7 12 18 19 16 12 10 8 8 8 9 12 14 15 18 17 13 10 6 1 1 5 10 13 8 4 9 14 10 8 7 4 5 11 10 9 10 8 5 6 8 9 10 12 11 7 10 26 36 20 -2 -5
14 14 12 15 25 35 39 33 18 9 13 20 20 18 19 21 24 26 23 16 14 17 18 16 15 13 10 8 8 9 8 4 2 1 5 13 17 16 16 14 10 6 5 7 9 8 6 6 5 1 -2 -1 3 4 5 12 18 15 8 8 8 3 3 6 4 3 7 9 10 12 12 10 8 8 8 8 8 10 8 3 12 31 30 9 -4
9 10 9 11 14 20 30 41 37 20 9 14 21 19 16 15 18 27 32 25 15 13 17 20 17 14 13 12 9 9 12 11 8 5 4 7 11 12 13 15 14 12 10 8 5 2 -2 -7 -8 -8 -9 -6 2 6 8 14 22 20 11 4 0 1 8 14 12 8 7 8 11 12 10 9 8 6 5 7 7 8 9 6 5 16 27 19 4
8 7 6 7 10 10 16 31 41 33 17 13 19 22 20 17 16 21 31 35 27 15 11 16 20 16 12 14 14 11 12 14 12 11 10 8 9 10 10 11 12 12 15 13 5 -2 -5 -7 -10 -9 -4 1 6 8 8 12 18 18 11 4 2 3 8 13 14 11 8 7 9 12 11 8 8 7 7 8 7 5 5 7 6 8 16 18 11
7 6 6 6 7 9 9 15 34 46 37 23 17 14 13 13 13 15 21 29 34 31 18 10 15 18 13 11 12 10 10 12 12 12 11 10 9 7 7 10 11 8 11 17 13 5 3 3 1 4 8 11 11 9 7 9 14 13 7 3 4 -0 -4 -0 5 6 5 4 4 7 10 8 9 10 8 5 6 4 3 5 7 8 14 16 13
8 7 9 8 6 9 8 7 21 40 42 34 22 6 5 24 35 30 25 21 23 35 36 20 11 12 11 8 8 7 6 9 11 10 8 8 10 8 4 6 11 8 5 9 12 11 8 7 7 9 12 11 11 12 8 6 10 12 6 3 3 -3 -9 -5 1 1 0 -0 0 4 6 5 8 11 7 5 6 5 6 11 11 11 19 21 13
8 7 10 10 8 10 8 5 12 21 28 41 36 6 6 54 81 62 41 29 17 20 37 36 23 16 12 5 4 6 5 6 10 12 11 11 14 14 8 7 12 13 9 7 8 9 10 11 12 13 14 12 11 13 11 8 9 10 7 4 2 -3 -8 -5 0 2 3 3 3 6 6 5 7 6 3 4 5 1 3 11 9 9 22 27 17
9 7 9 9 8 11 9 7 11 10 9 30 40 7 -7 40 74 55 35 36 25 15 25 35 33 30 23 10 4 6 8 7 8 11 13 13 14 13 11 9 12 15 15 14 15 14 14 16 15 14 15 15 12 12 13 13 12 12 10 8 7 5 6 8 10 11 11 8 5 5 5 5 5 3 2 6 7 3 5 9 8 13 25 24 13
10 8 9 8 7 11 11 7 12 13 4 13 32 19 -3 15 46 45 32 28 21 16 23 33 37 39 32 19 12 12 11 9 8 9 10 12 12 12 12 11 12 13 13 13 15 14 13 15 14 11 11 11 9 9 11 11 10 12 14 13 11 12 15 17 15 13 12 8 6 7 6 4 2 1 2 5 5 5 8 7 6 17 29 25 17
11 9 11 9 5 8 11 8 8 14 10 6 17 22 6 1 24 50 53 35 16 12 20 26 34 42 42 31 21 15 11 10 10 9 9 11 11 12 12 10 9 10 10 10 12 12 11 12 12 13 13 11 8 8 9 7 6 7 8 10 10 9 9 11 12 11 9 8 6 5 4 5 7 8 9 10 10 11 12 10 11 23 29 24 19
10 8 9 11 7 4 7 9 7 10 13 9 10 17 14 4 11 37 51 39 24 25 30 24 19 26 35 34 27 19 15 16 17 13 10 10 10 9 11 10 7 5 6 8 11 12 13 12 11 12 13 12 11 10 9 8 8 7 5 6 9 9 8 8 9 10 9 8 8 8 5 4 7 8 8 9 10 10 11 15 23 28 21 9 6
9 8 6 10 11 7 5 7 6 6 10 12 9 10 14 10 8 17 24 16 9 18 31 29 18 15 18 20 21 19 16 17 18 15 10 7 6 8 11 12 10 6 6 10 11 11 12 14 13 12 12 11 10 11 10 8 8 8 6 5 7 9 8 7 8 10 10 9 12 18 20 16 12 11 10 10 9 10 13 20 27 25 12 2 3
11 11 8 7 9 10 8 8 7 5 6 10 12 11 12 11 9 12 17 14 5 4 10 16 19 20 16 10 9 12 12 10 11 13 12 10 11 12 13 13 10 8 8 11 11 10 11 13 14 15 15 13 11 10 10 9 8 7 6 7 9 9 7 3 1 3 6 3 -0 2 8 11 10 10 10 10 9 8 9 13 21 24 16 5 2
11 13 12 9 8 9 9 9 9 8 7 7 9 10 11 11 10 10 14 18 19 19 18 15 14 18 22 19 12 10 12 13 12 12 14 14 14 14 14 13 13 12 12 12 12 12 13 14 14 14 15 16 15 13 11 10 10 9 6 6 8 9 9 7 4 2 5 6 2 -3 -4 -1 1 3 3 2 0 -2 -6 -9 -3 9 15 11 7
11 11 13 13 11 10 10 9 9 9 9 9 9 9 9 10 11 10 11 14 18 24 32 31 19 8 12 19 15 7 8 12 12 11 12 12 11 11 12 12 12 12 11 12 13 13 14 15 15 14 14 15 17 17 15 13 13 13 12 9 7 6 6 6 6 5 5 6 6 5 4 2 2 3 6 6 5 5 3 -3 -7 -5 1 6 8
11 10 11 13 13 11 11 11 10 9 9 9 10 11 10 9 9 8 9 12 13 13 21 32 32 20 13 16 15 9 7 9 9 9 10 10 8 8 8 9 10 11 10 10 10 11 11 13 15 16 16 15 15 16 17 16 15 14 15 15 14 12 10 8 7 6 5 5 3 2 3 3 1 1 3 6 8 9 10 9 6 4 3 5 7
13 12 11 11 13 13 13 12 12 11 10 9 10 12 11 11 11 9 6 8 11 10 9 17 27 30 28 26 22 15 9 6 6 7 10 12 13 13 12 9 8 8 9 9 9 9 10 12 14 15 17 18 17 17 17 18 18 16 15 15 16 17 16 16 14 11 10 10 8 6 5 4 3 3 4 8 10 10 9 8 7 7 7 6 5
14 14 13 12 13 13 14 15 14 14 12 10 10 11 12 12 12 11 9 7 8 10 9 9 12 18 24 28 30 28 21 14 8 5 3 3 5 9 13 16 15 12 9 8 8 7 7 8 9 11 12 14 15 16 16 17 18 18 17 16 16 16 16 15 16 16 16 15 14 14 14 13 11 9 9 9 11 12 12 11 9 9 10 11 10
14 14 14 14 15 15 15 16 16 16 17 14 11 10 13 15 14 13 13 11 7 7 8 9 9 10 12 16 22 27 29 28 27 25 22 18 13 7 4 6 9 10 8 6 6 7 7 7 7 7 8 8 8 9 10 11 13 14 15 15 15 16 16 14 14 14 15 15 16 16 17 18 18 17 15 13 12 13 14 15 15 15 14 14 15
19 18 17 16 17 18 18 18 17 17 18 18 16 12 11 14 16 17 16 15 12 9 7 7 8 9 9 10 12 14 17 20 24 27 31 35 38 36 29 21 16 14 12 9 7 7 8 8 8 8 8 8 8 7 7 8 8 10 11 12 12 13 14 14 13 12 11 12 13 14 14 15 16 17 16 15 15 14 14 15 15 15 15 14 15
Height
5698 5701 5705 5708 5712 5715 5717 5721 5727 5733 5735 5738 5742 5746 5750 5754 5756 5760 5764 5768 5771 5774 5776 5779 5782 5785 5788 5790 5793 5794 5795 5799 5802 5804 5805 5806 5806 5808 5810 5813 5816 5819 5821 5823 5825 5826 5827 5828 5828 5829 5830 5831 5831 5832 5831 5831 5831 5830 5830 5829 5829 5829 5828 5827 5827 5826 5826 5825 5823 5821 5821 5820 5818 5817 5815 5814 5812 5811 5810 5809 5808 5807 5806 5805 5805
5692 5696 5700 5703 5707 5710 5712 5716 5722 5727 5730 5733 5736 5740 5745 5748 5750 5754 5759 5763 5765 5767 5770 5772 5775 5778 5783 5788 5792 5794 5796 5798 5801 5802 5803 5803 5803 5804 5807 5810 5812 5815 5817 5819 5821 5823 5823 5824 5825 5826 5827 5828 5829 5829 5829 5829 5828 5828 5828 5827 5827 5827 5827 5826 5825 5824 5823 5822 5820 5820 5819 5818 5817 5816 5815 5813 5812 5810 5809 5808 5807 5806 5804 5804 5803
5687 5690 5694 5699 5703 5705 5708 5712 5716 5721 5726 5730 5733 5736 5739 5742 5745 5750 5754 5757 5759 5761 5764 5767 5771 5775 5779 5783 5787 5791 5794 5797 5799 5802 5802 5801 5800 5801 5803 5806 5808 5810 5813 5815 5817 5819 5820 5821 5822 5823 5824 5825 5826 5827 5827 5827 5826 5826 5825 5825 5825 5825 5825 5825 5824 5823 5822 5820 5820 5819 5818 5817 5816 5815 5814 5812 5811 5809 5808 5807 5805 5804 5803 5802 5801
5681 5685 5689 5693 5697 5701 5704 5707 5711 5716 5722 5727 5730 5732 5735 5737 5741 5745 5748 5751 5754 5756 5760 5764 5768 5772 5775 5779 5782 5786 5789 5792 5796 5799 5800 5799 5798 5798 5798 5800 5803 5806 5808 5811 5813 5815 5817 5818 5819 5820 5821 5822 5823 5824 5825 5825 5824 5824 5823 5823 5823 5823 5824 5823 5822 5821 5820 5820 5819 5818 5817 5816 5815 5814 5813 5811 5810 5808 5807 5806 5804 5803 5801 5801 5800
5676 5679 5683 5687 5692 5695 5699 5702 5706 5710 5716 5722 5725 5727 5731 5733 5737 5740 5743 5746 5749 5752 5757 5761 5765 5769 5773 5776 5779 5783 5786 5788 5791 5793 5794 5795 5796 5796 5794 5795 5797 5801 5804 5807 5809 5811 5813 5815 5816 5818 5819 5820 5821 5822 5822 5823 5822 5822 5821 5821 5822 5821 5821 5822 5821 5820 5819 5818 5817 5816 5816 5815 5813 5812 5811 5810 5809 5807 5806 5804 5803 5801 5800 5799 5798
5672 5674 5678 5682 5686 5690 5693 5697 5701 5705 5710 5716 5719 5721 5726 5729 5732 5736 5740 5743 5745 5749 5754 5758 5762 5766 5769 5773 5776 5779 5781 5782 5785 5787 5789 5791 5794 5794 5792 5792 5793 5797 5800 5803 5806 5808 5810 5812 5814 5815 5816 5817 5818 5819 5820 5821 5820 5820 5820 5820 5820 5819 5819 5819 5819 5818 5817 5816 5815 5814 5813 5813 5812 5811 5809 5808 5807 5806 5805 5803 5802 5800 5799 5798 5797
5667 5669 5672 5676 5680 5685 5688 5692 5696 5699 5704 5710 5713 5716 5720 5724 5727 5731 5735 5738 5741 5745 5750 5754 5758 5761 5765 5768 5770 5773 5775 5777 5780 5783 5785 5788 5790 5791 5791 5790 5791 5794 5798 5800 5803 5805 5807 5810 5811 5813 5814 5815 5816 5817 5818 5819 5818 5818 5818 5818 5818 5817 5817 5817 5817 5816 5815 5814 5813 5812 5811 5811 5810 5809 5808 5807 5806 5804 5803 5802 5800 5799 5797 5796 5795
5662 5664 5667 5670 5675 5680 5683 5687 5690 5693 5698 5703 5708 5711 5715 5719 5723 5727 5731 5733 5737 5741 5744 5749 5753 5756 5759 5762 5764 5768 5771 5772 5776 5780 5781 5783 5785 5788 5789 5788 5789 5792 5795 5798 5800 5803 5805 5807 5809 5811 5812 5812 5813 5815 5816 5817 5816 5816 5816 5816 5816 5816 5815 5815 5815 5814 5813 5812 5811 5810 5809 5808 5808 5807 5806 5805 5804 5803 5802 5800 5799 5797 5796 5794 5793
5658 5659 5662 5665 5670 5674 5678 5681 5685 5688 5691 5697 5702 5707 5710 5713 5718 5722 5725 5728 5731 5735 5739 5743 5747 5750 5753 5756 5758 5762 5766 5768 5772 5775 5777 5778 5782 5785 5786 5785 5786 5789 5792 5795 5798 5800 5802 5804 5806 5808 5809 5809 5810 5812 5813 5814 5814 5814 5814 5814 5814 5814 5814 5813 5813 5812 5811 5810 5809 5808 5807 5807 5806 5805 5805 5803 5802 5801 5800 5798 5797 5796 5795 5793 5791
5653 5655 5658 5661 5664 5668 5672 5676 5679 5682 5685 5690 5696 5701 5705 5708 5712 5715 5718 5722 5726 5729 5733 5737 5741 5744 5746 5750 5753 5756 5760 5764 5768 5771 5773 5775 5778 5782 5781 5779 5780 5784 5788 5791 5794 5797 5799 5801 5803 5804 5805 5806 5807 5808 5810 5811 5812 5812 5812 5812 5812 5812 5812 5811 5810 5810 5809 5808 5807 5806 5805 5804 5804 5803 5802 5801 5800 5799 5798 5796 5795 5794 5793 5792 5790
5649 5651 5653 5656 5658 5662 5666 5670 5674 5677 5680 5685 5690 5695 5699 5703 5707 5709 5712 5715 5720 5724 5728 5731 5735 5739 5742 5745 5748 5751 5754 5758 5763 5767 5770 5771 5774 5776 5775 5773 5774 5777 5781 5785 5789 5792 5794 5796 5798 5801 5802 5803 5804 5805 5806 5807 5808 5809 5809 5809 5810 5809 5809 5809 5808 5808 5807 5806 5805 5804 5803 5802 5802 5801 5800 5800 5798 5797 5795 5794 5793 5792 5791 5790 5789
5645 5648 5649 5651 5653 5656 5660 5664 5668 5672 5676 5679 5684 5689 5693 5697 5701 5704 5706 5710 5714 5718 5722 5726 5730 5734 5737 5740 5743 5746 5748 5752 5757 5761 5765 5767 5768 5769 5771 5771 5771 5773 5776 5779 5783 5786 5789 5791 5793 5796 5798 5799 5800 5801 5802 5803 5804 5805 5806 5806 5807 5806 5806 5806 5805 5805 5805 5804 5803 5802 5801 5800 5799 5799 5798 5798 5796 5795 5793 5792 5791 5790 5789 5788 5787
5641 5643 5645 5647 5649 5651 5654 5658 5663 5667 5671 5675 5678 5683 5687 5691 5696 5699 5702 5705 5709 5713 5717 5721 5724 5728 5732 5735 5737 5741 5744 5748 5751 5754 5757 5761 5762 5763 5766 5769 5770 5771 5774 5777 5780 5782 5784 5786 5788 5790 5792 5794 5795 5796 5797 5799 5800 5801 5802 5803 5803 5803 5803 5803 5803 5802 5802 5801 5801 5800 5799 5798 5797 5797 5796 5795 5794 5793 5792 5790 5789 5788 5787 5786 5785
5636 5638 5640 5642 5644 5646 5649 5653 5657 5662 5667 5670 5673 5677 5681 5686 5690 5694 5697 5700 5704 5708 5713 5717 5719 5722 5726 5729 5732 5736 5740 5744 5746 5748 5750 5754 5755 5757 5761 5764 5766 5768 5771 5774 5776 5779 5780 5782 5783 5785 5787 5789 5790 5792 5793 5795 5796 5797 5798 5799 5800 5800 5799 5799 5799 5799 5799 5798 5798 5797 5796 5796 5795 5794 5793 5793 5792 5791 5790 5788 5787 5785 5784 5783 5783
5630 5632 5634 5637 5640 5643 5645 5649 5653 5657 5662 5666 5669 5672 5676 5680 5684 5689 5692 5696 5700 5704 5708 5712 5714 5717 5721 5724 5727 5731 5735 5739 5741 5743 5746 5748 5750 5752 5756 5758 5760 5763 5766 5769 5772 5774 5776 5777 5779 5781 5783 5785 5787 5788 5789 5791 5792 5794 5795 5796 5796 5796 5796 5797 5796 5796 5796 5795 5795 5795 5794 5793 5792 5792 5791 5790 5790 5789 5788 5787 5785 5783 5782 5781 5780
5625 5627 5629 5632 5636 5639 5642 5645 5649 5653 5658 5661 5664 5668 5672 5675 5680 5684 5687 5691 5695 5699 5703 5707 5710 5713 5716 5719 5722 5726 5729 5733 5736 5738 5741 5743 5745 5747 5750 5753 5755 5758 5761 5765 5767 5769 5771 5772 5775 5777 5779 5781 5783 5784 5785 5786 5788 5790 5791 5792 5792 5792 5793 5794 5793 5793 5793 5792 5792 5792 5792 5791 5790 5789 5788 5787 5787 5787 5786 5785 5783 5781 5780 5779 5778
5622 5624 5625 5627 5631 5633 5636 5638 5642 5648 5653 5657 5661 5666 5668 5671 5675 5679 5682 5685 5688 5693 5697 5701 5703 5707 5710 5714 5718 5721 5724 5728 5731 5734 5736 5738 5740 5742 5744 5747 5751 5754 5757 5760 5762 5765 5766 5768 5770 5772 5774 5776 5779 5780 5781 5781 5783 5786 5787 5788 5789 5789 5789 5790 5790 5790 5789 5789 5789 5789 5789 5789 5788 5787 5786 5785 5784 5784 5783 5782 5781 5780 5778 5777 5776
5619 5620 5622 5624 5626 5628 5630 5633 5636 5641 5646 5651 5656 5661 5665 5668 5671 5675 5678 5680 5683 5686 5691 5694 5697 5700 5704 5709 5713 5716 5719 5723 5726 5728 5731 5733 5734 5736 5739 5742 5746 5749 5752 5754 5757 5759 5762 5764 5766 5768 5770 5772 5774 5776 5776 5776 5778 5781 5783 5784 5785 5786 5786 5785 5785 5785 5785 5785 5785 5786 5786 5786 5785 5784 5783 5782 5781 5781 5780 5779 5778 5777 5776 5775 5774
5616 5617 5619 5621 5622 5624 5626 5629 5632 5636 5640 5645 5649 5654 5659 5664 5667 5670 5673 5676 5678 5680 5683 5686 5690 5693 5697 5701 5705 5709 5713 5716 5720 5722 5725 5726 5728 5731 5734 5737 5740 5743 5746 5749 5752 5754 5756 5759 5761 5763 5766 5768 5769 5770 5771 5771 5772 5776 5779 5779 5781 5783 5783 5781 5780 5781 5781 5781 5782 5782 5783 5783 5782 5782 5781 5780 5779 5778 5777 5776 5775 5774 5773 5772 5771
5613 5615 5616 5617 5619 5620 5622 5624 5627 5629 5633 5637 5641 5646 5652 5657 5660 5663 5667 5670 5673 5675 5676 5680 5684 5686 5689 5693 5697 5701 5705 5708 5712 5716 5719 5720 5722 5725 5728 5731 5734 5737 5740 5743 5746 5749 5751 5754 5756 5758 5761 5762 5764 5765 5766 5766 5766 5769 5772 5774 5777 5780 5778 5775 5776 5777 5776 5777 5778 5778 5778 5779 5779 5779 5778 5777 5776 5775 5774 5773 5772 5771 5770 5769 5768
5609 5611 5613 5614 5615 5616 5618 5619 5622 5624 5626 5630 5634 5639 5644 5649 5652 5655 5659 5663 5667 5667 5666 5669 5675 5678 5680 5685 5689 5693 5697 5700 5704 5709 5712 5714 5716 5719 5722 5725 5728 5731 5733 5736 5739 5743 5745 5748 5750 5753 5755 5756 5758 5759 5760 5761 5761 5762 5764 5768 5773 5774 5771 5770 5771 5772 5772 5773 5773 5773 5774 5775 5775 5775 5774 5773 5772 5771 5770 5770 5769 5768 5767 5766 5765
5605 5607 5608 5609 5610 5612 5613 5615 5617 5619 5621 5624 5627 5631 5636 5642 5647 5650 5652 5655 5657 5657 5656 5659 5665 5669 5673 5677 5681 5685 5688 5692 5695 5700 5705 5708 5710 5712 5715 5719 5722 5724 5727 5730 5732 5736 5739 5741 5744 5747 5749 5749 5751 5752 5754 5755 5755 5755 5758 5762 5766 5766 5765 5765 5765 5765 5766 5768 5769 5769 5770 5770 5771 5771 5770 5769 5768 5767 5766 5766 5765 5765 5764 5762 5761
5602 5603 5604 5605 5606 5607 5609 5610 5612 5614 5616 5619 5622 5625 5629 5634 5639 5642 5644 5647 5649 5650 5650 5652 5657 5661 5665 5669 5673 5676 5680 5683 5687 5692 5697 5700 5703 5706 5709 5711 5714 5717 5720 5723 5726 5729 5731 5734 5737 5740 5742 5743 5743 5745 5747 5749 5750 5750 5751 5755 5757 5757 5757 5757 5758 5759 5761 5762 5763 5765 5766 5766 5766 5766 5765 5765 5764 5763 5762 5762 5762 5762 5761 5759 5757
5598 5599 5600 5601 5602 5603 5604 5606 5607 5609 5611 5613 5616 5619 5621 5625 5628 5630 5633 5637 5641 5643 5645 5648 5651 5652 5654 5658 5663 5668 5671 5674 5679 5684 5689 5693 5696 5700 5702 5704 5706 5709 5712 5716 5720 5722 5725 5728 5730 5733 5736 5737 5737 5738 5740 5741 5743 5744 5745 5748 5749 5748 5749 5750 5752 5754 5757 5757 5758 5760 5761 5761 5761 5761 5760 5759 5759 5758 5758 5758 5758 5758 5757 5755 5754
5594 5595 5596 5597 5599 5599 5600 5601 5603 5605 5607 5608 5610 5613 5615 5617 5619 5621 5623 5626 5630 5635 5639 5643 5643 5644 5646 5651 5656 5661 5664 5667 5672 5677 5682 5686 5689 5693 5696 5697 5699 5701 5704 5708 5712 5716 5719 5722 5724 5726 5728 5730 5731 5732 5733 5735 5738 5739 5740 5740 5740 5739 5741 5744 5746 5748 5750 5752 5753 5754 5755 5756 5755 5754 5753 5753 5753 5754 5754 5753 5753 5753 5752 5751 5750
5590 5591 5592 5593 5594 5595 5596 5597 5598 5600 5602 5604 5605 5607 5608 5610 5613 5615 5617 5620 5623 5626 5630 5631 5632 5636 5641 5646 5651 5655 5658 5660 5664 5670 5674 5678 5682 5685 5688 5690 5691 5693 5696 5700 5704 5708 5711 5714 5718 5720 5722 5723 5724 5726 5727 5730 5731 5731 5731 5731 5730 5732 5735 5739 5740 5741 5743 5746 5747 5748 5749 5750 5749 5748 5747 5746 5747 5748 5749 5748 5747 5747 5747 5746 5745
5587 5587 5588 5589 5590 5591 5591 5592 5593 5595 5596 5598 5600 5602 5603 5605 5607 5609 5612 5615 5618 5621 5623 5624 5626 5630 5635 5639 5643 5646 5650 5653 5657 5662 5667 5671 5675 5678 5680 5682 5684 5686 5689 5693 5697 5700 5703 5707 5711 5714 5715 5716 5716 5718 5720 5722 5723 5723 5723 5724 5725 5727 5731 5733 5733 5734 5736 5738 5741 5742 5743 5743 5743 5742 5741 5741 5741 5742 5743 5743 5742 5742 5742 5741 5740
5585 5584 5584 5585 5585 5586 5587 5588 5589 5590 5591 5592 5594 5596 5597 5599 5601 5603 5606 5609 5612 5615 5618 5620 5622 5625 5629 5632 5635 5638 5642 5646 5651 5655 5659 5664 5668 5670 5671 5674 5676 5678 5682 5687 5690 5693 5695 5698 5702 5706 5707 5707 5708 5710 5713 5715 5716 5717 5717 5719 5721 5723 5725 5726 5726 5726 5729 5732 5734 5735 5736 5736 5736 5736 5735 5735 5735 5735 5736 5736 5736 5736 5736 5735 5735
5582 5581 5581 5581 5581 5581 5582 5583 5584 5585 5585 5586 5588 5589 5591 5592 5594 5597 5600 5603 5605 5608 5611 5614 5617 5621 5624 5626 5628 5631 5635 5640 5643 5647 5650 5654 5658 5660 5662 5664 5667 5671 5675 5678 5680 5683 5686 5689 5692 5696 5698 5699 5701 5704 5706 5708 5710 5711 5712 5713 5715 5717 5718 5719 5720 5721 5723 5726 5727 5727 5728 5729 5729 5729 5728 5729 5729 5728 5728 5729 5730 5729 5729 5729 5729
5578 5578 5577 5577 5576 5577 5577 5577 5578 5578 5579 5580 5581 5583 5584 5586 5587 5589 5593 5595 5598 5601 5604 5607 5611 5615 5617 5619 5622 5626 5629 5632 5635 5638 5640 5644 5648 5652 5654 5656 5659 5663 5667 5668 5669 5674 5678 5682 5685 5688 5691 5693 5696 5699 5701 5703 5704 5705 5706 5707 5709 5710 5712 5714 5715 5716 5718 5719 5720 5720 5721 5722 5722 5722 5722 5723 5723 5721 5721 5722 5722 5721 5721 5724 5724
5575 5574 5573 5572 5572 5572 5572 5572 5572 5572 5573 5574 5574 5575 5577 5578 5580 5582 5585 5587 5590 5593 5596 5600 5603 5606 5609 5612 5616 5619 5622 5625 5628 5631 5634 5637 5641 5645 5647 5649 5652 5655 5658 5659 5662 5668 5673 5676 5679 5682 5685 5688 5690 5693 5694 5696 5697 5697 5699 5700 5701 5703 5705 5707 5709 5710 5712 5712 5713 5714 5714 5715 5715 5715 5715 5716 5716 5714 5713 5715 5715 5714 5714 5717 5718
5572 5570 5569 5568 5568 5567 5567 5566 5566 5567 5567 5567 5568 5569 5570 5571 5572 5574 5576 5579 5581 5584 5587 5591 5595 5598 5601 5605 5608 5612 5615 5618 5622 5625 5627 5629 5633 5636 5639 5642 5644 5646 5648 5651 5656 5662 5667 5669 5672 5676 5678 5680 5683 5685 5686 5688 5689 5691 5691 5693 5694 5695 5698 5700 5701 5703 5704 5704 5705 5707 5708 5708 5708 5708 5708 5708 5708 5707 5706 5707 5708 5708 5707 5709 5710
5569 5567 5566 5565 5564 5563 5562 5562 5561 5561 5561 5562 5562 5563 5563 5563 5565 5566 5568 5570 5573 5576 5579 5582 5586 5590 5593 5597 5600 5603 5607 5610 5614 5617 5619 5621 5624 5627 5630 5633 5636 5637 5640 5645 5652 5657 5659 5661 5664 5668 5670 5672 5675 5677 5678 5679 5682 5683 5684 5685 5686 5688 5690 5692 5693 5693 5694 5696 5697 5698 5700 5701 5701 5701 5700 5700 5700 5700 5699 5699 5701 5701 5700 5700 5703
5565 5564 5563 5562 5561 5559 5558 5557 5556 5556 5556 5556 5556 5556 5556 5556 5557 5558 5560 5562 5564 5568 5571 5575 5578 5582 5585 5589 5592 5596 5600 5602 5605 5608 5611 5613 5615 5617 5620 5624 5627 5630 5634 5640 5646 5650 5651 5654 5657 5659 5661 5664 5666 5669 5670 5672 5674 5675 5677 5678 5679 5680 5682 5684 5684 5684 5686 5688 5688 5689 5691 5693 5693 5693 5693 5692 5692 5693 5692 5692 5693 5694 5694 5694 5696
5562 5560 5559 5558 5557 5555 5554 5553 5551 5550 5550 5550 5550 5549 5549 5548 5549 5550 5553 5555 5557 5559 5563 5567 5571 5573 5577 5581 5585 5588 5592 5594 5597 5599 5602 5603 5605 5608 5611 5615 5620 5624 5629 5634 5638 5641 5643 5646 5648 5651 5653 5655 5658 5661 5663 5664 5666 5667 5669 5671 5672 5674 5675 5675 5676 5677 5678 5679 5680 5681 5683 5684 5685 5685 5685 5684 5684 5685 5686 5686 5686 5687 5688 5687 5688
5559 5557 5555 5554 5553 5552 5550 5549 5547 5545 5544 5544 5544 5544 5543 5542 5542 5543 5545 5547 5548 5551 5555 5559 5562 5565 5568 5572 5575 5578 5582 5585 5587 5590 5592 5594 5596 5602 5606 5609 5613 5617 5621 5625 5629 5632 5635 5637 5639 5641 5644 5646 5649 5652 5655 5656 5658 5660 5661 5663 5665 5666 5666 5666 5668 5670 5670 5670 5671 5673 5674 5675 5677 5677 5677 5676 5677 5678 5678 5679 5679 5679 5680 5679 5680
5556 5554 5553 5551 5550 5548 5547 5545 5544 5542 5540 5540 5539 5539 5537 5534 5531 5532 5535 5538 5540 5543 5547 5550 5552 5554 5557 5560 5564 5567 5571 5575 5577 5580 5583 5585 5590 5596 5601 5603 5605 5609 5612 5616 5619 5623 5625 5627 5629 5632 5635 5637 5640 5643 5645 5647 5649 5651 5653 5654 5656 5657 5657 5658 5660 5662 5661 5661 5663 5664 5664 5666 5668 5669 5669 5669 5670 5670 5670 5671 5671 5670 5671 5671 5671
5552 5550 5549 5548 5546 5544 5543 5542 5540 5538 5537 5535 5534 5534 5532 5526 5521 5521 5526 5530 5533 5536 5538 5539 5540 5543 5547 5552 5556 5560 5565 5568 5570 5573 5576 5579 5583 5588 5591 5593 5596 5600 5603 5607 5610 5612 5615 5617 5620 5623 5626 5629 5631 5633 5636 5638 5640 5643 5644 5645 5646 5647 5648 5649 5651 5653 5653 5653 5654 5655 5656 5657 5659 5660 5660 5661 5662 5662 5663 5663 5662 5662 5662 5663 5663
5547 5546 5544 5543 5542 5541 5539 5538 5537 5535 5533 5532 5530 5529 5527 5522 5517 5517 5521 5524 5526 5529 5530 5531 5533 5536 5541 5547 5552 5556 5559 5562 5564 5566 5569 5572 5575 5579 5581 5584 5588 5591 5594 5598 5601 5603 5605 5608 5611 5614 5617 5619 5622 5625 5627 5629 5631 5633 5634 5634 5635 5636 5638 5639 5641 5643 5645 5645 5646 5646 5648 5649 5651 5651 5650 5652 5654 5655 5655 5655 5654 5654 5655 5656 5656
5544 5542 5540 5538 5537 5536 5535 5533 5532 5531 5530 5528 5527 5525 5524 5522 5518 5516 5518 5521 5522 5523 5525 5526 5527 5530 5535 5541 5546 5550 5552 5554 5557 5560 5562 5564 5567 5571 5574 5577 5580 5583 5586 5589 5591 5594 5596 5599 5602 5604 5607 5609 5612 5614 5616 5618 5620 5622 5622 5623 5624 5626 5628 5630 5632 5634 5636 5636 5637 5638 5640 5641 5642 5642 5642 5643 5646 5647 5648 5647 5646 5646 5646 5648 5650
5540 5538 5536 5534 5532 5532 5531 5529 5528 5527 5527 5526 5524 5522 5521 5520 5518 5516 5516 5518 5519 5520 5521 5522 5523 5525 5529 5534 5539 5543 5546 5549 5551 5554 5556 5558 5561 5564 5567 5569 5572 5575 5577 5580 5582 5584 5587 5589 5592 5594 5597 5599 5601 5603 5605 5607 5609 5610 5611 5613 5615 5616 5618 5621 5623 5625 5627 5628 5628 5630 5632 5633 5633 5633 5634 5636 5637 5638 5638 5638 5638 5638 5638 5640 5642
5536 5534 5533 5531 5529 5527 5526 5525 5524 5523 5522 5522 5521 5519 5518 5517 5517 5515 5513 5514 5516 5517 5518 5519 5520 5521 5524 5527 5532 5536 5540 5543 5545 5547 5549 5552 5554 5557 5559 5561 5564 5566 5569 5571 5573 5575 5577 5580 5582 5584 5587 5589 5591 5593 5594 5596 5598 5600 5601 5603 5605 5607 5609 5612 5614 5616 5617 5618 5620 5622 5624 5625 5624 5624 5626 5628 5628 5628 5629 5630 5630 5630 5631 5632 5634
5531 5529 5528 5527 5525 5523 5522 5521 5520 5519 5518 5518 5518 5517 5516 5514 5514 5513 5512 5512 5513 5514 5514 5515 5516 5518 5519 5522 5526 5529 5532 5535 5538 5540 5543 5545 5547 5549 5551 5554 5556 5558 5560 5562 5564 5566 5568 5570 5573 5575 5578 5580 5582 5584 5585 5586 5588 5590 5591 5593 5595 5597 5599 5601 5604 5606 5608 5610 5611 5612 5613 5615 5615 5616 5618 5619 5620 5620 5621 5621 5621 5622 5623 5625 5626
5526 5525 5523 5522 5521 5520 5518 5517 5516 5515 5514 5513 5513 5514 5513 5512 5512 5511 5511 5511 5510 5510 5510 5511 5512 5514 5515 5517 5520 5523 5525 5528 5531 5533 5536 5538 5540 5541 5543 5546 5548 5550 5552 5554 5556 5557 5559 5561 5564 5566 5569 5570 5572 5574 5575 5577 5578 5581 5582 5583 5585 5587 5589 5591 5593 5596 5598 5600 5601 5602 5602 5604 5606 5607 5609 5611 5612 5612 5613 5613 5613 5613 5615 5616 5618
5520 5520 5518 5517 5516 5515 5514 5513 5511 5510 5510 5510 5509 5508 5508 5509 5509 5508 5508 5508 5507 5506 5506 5506 5507 5509 5510 5512 5514 5517 5519 5521 5524 5526 5529 5531 5532 5534 5536 5538 5540 5542 5544 5545 5547 5549 5551 5552 5555 5557 5559 5561 5562 5564 5566 5567 5569 5571 5573 5574 5575 5577 5580 5582 5583 5585 5586 5588 5590 5592 5593 5595 5596 5598 5600 5602 5603 5603 5604 5605 5605 5605 5606 5607 5609
5514 5514 5513 5512 5511 5510 5509 5508 5507 5506 5505 5505 5505 5504 5503 5503 5504 5504 5504 5504 5503 5502 5502 5501 5502 5504 5505 5506 5508 5511 5513 5515 5517 5519 5521 5523 5525 5526 5528 5530 5531 5533 5535 5537 5538 5540 5541 5543 5545 5547 5549 5551 5553 5555 5556 5558 5560 5561 5563 5565 5566 5567 5569 5571 5573 5574 5576 5578 5580 5582 5584 5585 5587 5588 5590 5591 5593 5594 5595 5596 5597 5597 5598 5599 5600
5509 5508 5507 5506 5505 5504 5503 5502 5502 5501 5500 5500 5500 5500 5499 5498 5498 5499 5499 5499 5499 5498 5498 5497 5497 5498 5500 5501 5503 5505 5507 5509 5511 5513 5514 5516 5517 5519 5520 5522 5523 5525 5526 5528 5530 5531 5533 5534 5536 5538 5540 5542 5544 5545 5547 5549 5550 5552 5553 5555 5557 5558 5560 5561 5563 5565 5567 5569 5570 5572 5574 5576 5578 5579 5580 5582 5583 5584 5586 5588 5589 5589 5590 5591 5592
5502 5501 5500 5499 5498 5497 5497 5496 5496 5495 5494 5493 5494 5494 5494 5493 5493 5493 5493 5493 5493 5493 5493 5493 5493 5493 5494 5496 5497 5499 5501 5503 5505 5506 5508 5509 5511 5512 5513 5514 5515 5517 5518 5519 5521 5522 5524 5525 5527 5529 5530 5532 5534 5536 5537 5539 5541 5542 5544 5546 5547 5549 5551 5552 5554 5555 5557 5559 5560 5562 5564 5566 5568 5570 5571 5572 5573 5575 5576 5578 5580 5581 5581 5582 5583
5496 5494 5493 5493 5492 5491 5490 5489 5489 5489 5488 5487 5487 5487 5487 5487 5487 5488 5488 5488 5487 5487 5488 5488 5488 5489 5489 5490 5491 5493 5495 5496 5498 5499 5501 5502 5504 5505 5506 5507 5508 5509 5510 5511 5513 5514 5516 5517 5519 5520 5521 5523 5524 5526 5528 5529 5531 5533 5534 5536 5537 5540 5541 5543 5544 5545 5547 5548 5550 5552 5554 5556 5558 5560 5561 5562 5564 5565 5566 5568 5570 5571 5572 5573 5574
5489 5488 5487 5486 5485 5484 5483 5482 5482 5482 5482 5481 5480 5480 5480 5480 5480 5481 5482 5482 5481 5481 5482 5482 5483 5483 5484 5484 5485 5486 5488 5489 5491 5492 5493 5495 5496 5497 5498 5499 5500 5501 5502 5503 5505 5506 5507 5509 5510 5511 5513 5514 5515 5516 5518 5520 5521 5523 5524 5526 5527 5529 5531 5532 5534 5535 5536 5537 5539 5542 5544 5546 5548 5549 5551 5552 5553 5554 5556 5558 5559 5560 5561 5563 5564
5482 5481 5480 5479 5478 5478 5477 5476 5475 5475 5475 5475 5474 5473 5473 5473 5473 5474 5475 5475 5475 5475 5475 5476 5476 5477 5477 5478 5479 5480 5481 5482 5483 5484 5485 5486 5487 5488 5489 5490 5491 5492 5493 5494 5496 5497 5499 5500 5501 5503 5504 5505 5506 5507 5508 5510 5511 5512 5514 5515 5517 5518 5520 5522 5523 5524 5526 5527 5529 5531 5533 5535 5537 5538 5540 5541 5542 5544 5545 5547 5548 5549 5550 5552 5553